Location: Bernay
(48.6766°N, 2.9386°E)
Time: 06:59:47
(UTC+00:00)

SL-8 Rocket - Pass Details

Date: 12 January 2026
Orbit: 955 x 990 km, 82.9° (Epoch: 17 February)

Event Time Altitude Azimuth Distance (km) Brightness Sun altitude
Rises 16:50:39 0° 355° (N) 3,684 6.8 -5.8°
Reaches altitude 10° 16:53:23 10° 3° (N) 2,727 6.1 -6.2°
Maximum altitude 16:59:11 39° 71° (ENE) 1,423 4.4 -7.1°
Drops below altitude 10° 17:04:53 10° 139° (SE) 2,690 6.2 -8.0°
Sets 17:07:33 0° 147° (SSE) 3,628 6.9 -8.4°
